Location: Eymir
(36.7333°N, 29.7833°E)
Time: 07:44:09
(UTC+00:00)

ARIANE 6 FM1 Upper Stage - Visible Passes

Search period start: 08 March 2026 00:00
Search period end: 18 March 2026 00:00
Orbit: 523 x 607 km, 62.0° (Epoch: 8 March)

Date Brightness Start Highest point End Pass type
(mag) Time Alt. Az. Time Alt. Az. Time Alt. Az.
8 Mar 4.0 02:43:20 12° S 02:46:49 37° ESE 02:50:35 10° NE visible
9 Mar 3.1 02:44:20 25° SSW 02:46:34 58° ESE 02:50:35 10° NE visible
10 Mar 2.5 02:45:03 43° SW 02:46:21 88° WNW 02:50:26 10° NNE visible
11 Mar 2.7 02:45:34 51° W 02:46:10 57° NW 02:50:10 10° NNE visible
12 Mar 5.9 01:09:53 11° ENE 01:09:53 11° ENE 01:10:06 10° ENE visible
12 Mar 3.2 02:45:54 37° NW 02:46:00 37° NW 02:49:47 10° NNE visible
13 Mar 5.8 01:10:05 12° ENE 01:10:05 12° ENE 01:10:25 10° ENE visible
13 Mar 3.9 02:46:06 26° NW 02:46:06 26° NW 02:49:17 10° N visible
14 Mar 5.8 01:10:11 12° NE 01:10:11 12° NE 01:10:28 10° NE visible
14 Mar 4.4 02:46:11 18° NW 02:46:11 18° NW 02:48:38 10° N visible
15 Mar 5.8 01:10:10 11° NE 01:10:10 11° NE 01:10:21 10° NE visible
15 Mar 4.8 02:46:10 13° NW 02:46:10 13° NW 02:47:42 10° NNW visible
16 Mar 5.8 01:10:04 10° NNE 01:10:04 10° NNE 01:10:07 10° NNE visible
